Showing default

SKY MEXICO-1, 40664

Orbit data source: Space-Track

SKY MEXICO-1, 40664 is a Mexican payload satellite in GEO that was launched on Wed, 27 May 2015 UTC via an ARIANE 5ECA launch vehicle from the French Guiana (FRGUI). Payload-class satellites include a variety of spacecraft equipped with specific instruments for various scientific and technological missions. These include communications satellites like Starlink; space stations such as the ISS; scientific satellites like the Hubble; Earth observation satellites from companies like Planet Labs, Umbra, and HawkEye 360; GPS; miniature CubeSats for education and research; and military/defense satellites.

Loading next visibility...
Identifier
40664, 2015-026B
Orbit
GEO
Country
Flag of MXMX / MEX
Related business
Manufacturer
OATK SSG
Mission
Operational Commercial Communications
Bus & Motor
GEOSTAR-2, IHI BT-4
Mass
3,182 kg wet, 1,260 kg dry
Launch date (UTC)
2015-05-27 (11 years ago)
Launch vehicle
ARIANE 5ECA
Launch site
French Guiana (FRGUI)
Object type
Payload
Rocket body
Debris
Shape & HBR
Box + 2 Pan, 11.2 m
Radar Cross Section
28.221 m², Large (>1 m²)

Expand to show TLE details & history
Last TLE update: 2 days ago

TLE from 2 days ago
0 SKY MEXICO-1
1 40664U 15026B   26171.37638374 -.00000239  00000-0  00000+0 0  9996
2 40664   0.0192  61.3246 0002160  44.3132 219.6461  1.00272203 40484
Epoch: 2026-06-20T09:01Z
TLE epoch observation values (Epoch: 2026-06-20T09:01:59.555Z)
Latitude
-0.02742°
Longitude
-78.80971°
Altitude
35,792.995 km
Speed
3.074 km/s
True Right ascension
21h 41m 07s
True Declination
0° 01' 39"
Sunlit
Object was in daylight at epoch
Visualization orbit readout
Latitude
Unknown
Longitude
Unknown
Altitude
Unknown
Speed
Unknown
Apparent Right ascension
Unknown
Apparent Declination
Unknown
Sunlit
N/A
Visualization observer readout
Local Sidereal Time
21:40:45
Azimuth
Unknown
Elevation
Unknown
Doppler factor
Unknown
Orbital elements
Apogee altitude
35,796.656 km
Perigee altitude
35,778.44 km
Semi-major axis
42,165.685 km
Eccentricity
0.00022
Inclination
0.0192°
RAAN
61.3246°
Arg. of periapsis
44.3132°
True anomaly
219.63031°
Mean anomaly
219.6461°
Eccentric anomaly
219.6382°
Mean motion
0.25067 °/min
Orbital period
1,436.14 mins
BSTAR
0
Loading maneuver chart data...
Computing Atmospheric mass density...
Loading historical data...
Loading historical data...
Loading historical data...
Loading historical data...
Loading historical data...
Loading historical data...
Loading historical data...
Other satellites on launch #26 in the year 2015 (2015-05-27 UTC)

Documentation

Showing up to 5 results
|